Change the Weather History Date:

Wednesday, February 19, 2014

  Actual Average Record
Temperature  
Mean Temperature 65 °F 50 °F  
Max Temperature 77 °F 62 °F 81 °F (1986)
Min Temperature 53 °F 37 °F 19 °F (1978)
Degree Days  
Heating Degree Days 0 15  
Month to date heating degree days 368 332  
Since 1 July heating degree days 2241 1969  
Cooling Degree Days 0 0  
Month to date cooling degree days 0 0  
Year to date cooling degree days 0 3  
Growing Degree Days 15 (Base 50)    
Moisture  
Dew Point 58 °F    
Average Humidity 75    
Maximum Humidity 100    
Minimum Humidity 50    
Precipitation  
Precipitation 0.00 in 0.20 in 4.94 in (1991)
Month to date precipitation 5.11 3.86  
Year to date precipitation 7.58 8.99  
Sea Level Pressure  
Sea Level Pressure 30.03 in    
Wind  
Wind Speed 8 mph (SSW)    
Max Wind Speed 15 mph    
Max Gust Speed 20 mph    
Visibility 6 miles    
Events Fog    
T = Trace of Precipitation, MM = Missing Value Source: NWS Daily Summary

Daily Weather History Graph

Daily Weather History Graph

Search for Another Location

Airport or City:

Trip Planner

Search our weather history database for the weather conditions in past years. The results will help you decide how hot, cold, wet, or windy it might be!

Date:

Astronomy

Feb. 19, 2014 Rise Set
Actual Time 6:33 AM CST 5:44 PM CST
Civil Twilight 6:08 AM CST 6:09 PM CST
Nautical Twilight 5:40 AM CST 6:38 PM CST
Astronomical Twilight 5:11 AM CST 7:06 PM CST
Moon 10:18 PM CST (2/19) 8:56 AM CST (2/19)
Length of Visible Light 12h 00m
Length of Day
11h 10m
Waning Gibbous, 79% of the Moon is Illuminated
Feb 19
Waning Gibbous
Feb 22
Last Quarter
Mar 1
New
Mar 8
First Quarter
Mar 16
Full

Hourly Weather History & Observations

Time (CST) Temp. Dew Point Humidity Pressure Visibility Wind Dir Wind Speed Gust Speed Precip Events Conditions
12:58 AM 64.0 °F 61.0 °F 90% 30.03 in 10.0 mi SSW 12.7 mph - N/A   Overcast
1:12 AM 64.4 °F 60.8 °F 88% 30.05 in 10.0 mi SSW 9.2 mph - N/A   Overcast
1:58 AM 64.0 °F 60.1 °F 87% 30.05 in 10.0 mi WSW 5.8 mph - N/A   Mostly Cloudy
2:58 AM 62.1 °F 60.1 °F 93% 30.05 in 10.0 mi WSW 3.5 mph - N/A   Mostly Cloudy
3:58 AM 57.0 °F 57.0 °F 100% 30.04 in 7.0 mi South 5.8 mph - N/A   Scattered Clouds
4:31 AM 55.4 °F 55.4 °F 100% 30.06 in 1.8 mi South 4.6 mph - N/A   Partly Cloudy
4:45 AM 55.4 °F 55.4 °F 100% 30.06 in 0.8 mi South 6.9 mph - N/A   Mist
4:49 AM 55.4 °F 53.6 °F 94% 30.06 in 0.5 mi South 6.9 mph - N/A Fog Fog
4:58 AM 55.0 °F 55.0 °F 100% 30.05 in 0.5 mi South 5.8 mph - N/A Fog Fog
5:06 AM 55.4 °F 55.4 °F 100% 30.06 in 0.2 mi SSW 5.8 mph - N/A Fog Fog
5:24 AM 55.4 °F 55.4 °F 100% 30.06 in 0.5 mi South 5.8 mph - N/A Fog Fog
5:31 AM 55.4 °F 55.4 °F 100% 30.06 in 0.2 mi South 5.8 mph - N/A Fog Fog
5:44 AM 55.4 °F 55.4 °F 100% 30.06 in 0.2 mi South 5.8 mph - N/A Fog Fog
5:58 AM 54.0 °F 54.0 °F 100% 30.06 in 0.2 mi South 6.9 mph - N/A Fog Fog
6:19 AM 55.4 °F 55.4 °F 100% 30.07 in 0.2 mi SSW 8.1 mph - N/A Fog Fog
6:34 AM 55.4 °F 55.4 °F 100% 30.06 in 0.2 mi South 9.2 mph - N/A Fog Fog
6:58 AM 57.0 °F 57.0 °F 100% 30.06 in 0.2 mi SSW 8.1 mph - N/A Fog Fog
7:35 AM 60.8 °F 60.8 °F 100% 30.07 in 0.2 mi SSW 4.6 mph - N/A Fog Fog
7:44 AM 60.8 °F 60.8 °F 100% 30.08 in 0.5 mi South 5.8 mph - N/A Fog Fog
7:58 AM 60.1 °F 60.1 °F 100% 30.08 in 0.8 mi South 5.8 mph - N/A   Mist
8:08 AM 60.8 °F 60.8 °F 100% 30.09 in 1.5 mi South 5.8 mph - N/A   Overcast
8:19 AM 60.8 °F 60.8 °F 100% 30.09 in 3.0 mi South 5.8 mph - N/A   Overcast
8:31 AM 60.8 °F 60.8 °F 100% 30.09 in 3.0 mi South 5.8 mph - N/A   Overcast
8:58 AM 62.1 °F 61.0 °F 96% 30.09 in 3.0 mi South 9.2 mph - N/A   Overcast
9:51 AM 64.4 °F 60.8 °F 88% 30.09 in 10.0 mi SSW 5.8 mph - N/A   Overcast
9:58 AM 64.9 °F 61.0 °F 87% 30.09 in 10.0 mi SSW 9.2 mph - N/A   Overcast
10:14 AM 68.0 °F 60.8 °F 78% 30.09 in 10.0 mi SSW 6.9 mph - N/A   Overcast
10:45 AM 69.8 °F 60.8 °F 73% 30.09 in 10.0 mi SW 6.9 mph - N/A   Mostly Cloudy
10:58 AM 70.0 °F 59.0 °F 68% 30.07 in 10.0 mi SSW 8.1 mph - N/A   Mostly Cloudy
11:16 AM 73.4 °F 59.0 °F 61% 30.07 in 10.0 mi SSW 12.7 mph - N/A   Mostly Cloudy
11:48 AM 69.8 °F 59.0 °F 68% 30.05 in 10.0 mi West 8.1 mph - N/A   Mostly Cloudy
11:58 AM 73.0 °F 57.9 °F 59% 30.04 in 10.0 mi WSW 8.1 mph - N/A   Mostly Cloudy
12:58 PM 73.9 °F 57.0 °F 55% 30.01 in 10.0 mi SSW 11.5 mph 18.4 mph N/A   Mostly Cloudy
1:58 PM 75.0 °F 55.0 °F 50% 29.97 in 10.0 mi SSW 8.1 mph 16.1 mph N/A   Partly Cloudy
2:58 PM 75.0 °F 55.0 °F 50% 29.96 in 10.0 mi SSW 8.1 mph - N/A   Mostly Cloudy
3:58 PM 75.9 °F 55.0 °F 48% 29.95 in 10.0 mi South 8.1 mph - N/A   Partly Cloudy
4:58 PM 75.0 °F 55.0 °F 50% 29.95 in 10.0 mi South 9.2 mph - N/A   Scattered Clouds
5:58 PM 69.1 °F 54.0 °F 58% 29.96 in 10.0 mi South 5.8 mph - N/A   Clear
6:58 PM 63.0 °F 55.9 °F 78% 29.96 in 10.0 mi Calm Calm - N/A   Clear
7:58 PM 57.9 °F 54.0 °F 87% 29.96 in 10.0 mi SSW 4.6 mph - N/A   Clear
8:58 PM 62.1 °F 55.9 °F 80% 29.97 in 10.0 mi South 8.1 mph - N/A   Clear
9:58 PM 62.1 °F 57.9 °F 86% 29.97 in 10.0 mi South 8.1 mph - N/A   Clear
10:40 PM 64.4 °F 60.8 °F 88% 29.96 in 10.0 mi South 11.5 mph - N/A   Mostly Cloudy
10:58 PM 64.9 °F 61.0 °F 87% 29.95 in 10.0 mi South 9.2 mph - N/A   Overcast
11:58 PM 64.9 °F 61.0 °F 87% 29.95 in 10.0 mi South 12.7 mph - N/A   Overcast